Location: ??????
(42.0089°N, 44.3281°E)
Time: 12:20:55
(UTC+00:00)

NOSS 8 (H) - Pass Details

Date: 02 June 2022
Orbit: 366 x 1779 km, 63.3° (Epoch: 28 June)

Event Time Altitude Azimuth Distance (km) Brightness Sun altitude
Rises 18:26:13 0° 320° (NW) 2,570 10.1 -16.5°
Reaches altitude 10° 18:28:05 10° 316° (NW) 1,810 8.8 -16.7°
Maximum altitude 18:32:02 59° 237° (WSW) 777 5.5 -17.1°
Enters shadow 18:34:40 28° 168° (SSE) 1,423 6.4 -17.4°
